Location: Newark
(49.8969°N, 3.3422°E)
Time: 20:25:43
(UTC+00:00)

Explorer 7 - Pass Details

Date: 30 January 2020
Orbit: 485 x 679 km, 50.3° (Epoch: 23 February)

Event Time Altitude Azimuth Distance (km) Brightness Sun altitude
Rises 21:19:12 0° 240° (WSW) 2,601 - -44.5°
Reaches altitude 10° 21:21:26 10° 236° (SW) 1,698 - -44.8°
Maximum altitude 21:25:10 56° 158° (SSE) 589 - -45.3°
Drops below altitude 10° 21:28:51 10° 80° (E) 1,670 - -45.8°
Sets 21:31:02 0° 76° (ENE) 2,553 - -46.1°
